Location: Newark
(21.1200°N, 73.4000°E)
Time: 14:27:01
(UTC+00:00)

Explorer 11/Cluster Stage 4 - Pass Details

Date: 25 January 2020
Orbit: 467 x 1259 km, 28.8° (Epoch: 22 February)

Event Time Altitude Azimuth Distance (km) Brightness Sun altitude
Rises 06:34:17 0° 228° (SW) 3,976 10.4 48.4°
Reaches altitude 10° 06:37:07 10° 222° (SW) 3,094 10.1 48.5°
Maximum altitude 06:44:40 48° 151° (SSE) 1,582 10.5 49.0°
Drops below altitude 10° 06:52:29 10° 80° (E) 3,205 9.8 49.3°
Sets 06:55:27 0° 75° (ENE) 4,129 10.2 49.4°
